Location: Cosy Dell
(34.2789°N, 117.4537°W)
Time: 20:23:22
(UTC+00:00)

Hubble Space Telescope - Visible Passes

Search period start: 23 September 2020 00:00
Search period end: 03 October 2020 00:00
Orbit: 536 x 540 km, 28.5° (Epoch: 22 September)

Date Brightness Start Highest point End Pass type
(mag) Time Alt. Az. Time Alt. Az. Time Alt. Az.
23 Sep 3.0 12:58:09 10° SSW 13:00:50 17° SSE 13:03:33 10° ESE visible
24 Sep 2.8 12:46:59 10° SSW 12:50:02 20° SSE 12:53:04 10° ESE visible
25 Sep 2.5 12:36:26 12° SSW 12:39:14 23° SSE 12:42:31 10° ESE visible
26 Sep 2.3 12:26:27 18° SSW 12:28:26 26° SSE 12:31:54 10° ESE visible
27 Sep 2.1 12:16:26 25° SSW 12:17:39 29° S 12:21:15 10° ESE visible
28 Sep 1.8 12:06:23 31° S 12:06:51 32° S 12:10:33 10° ESE visible
29 Sep 1.8 11:56:19 34° SSE 11:56:19 34° SSE 11:59:50 10° ESE visible
30 Sep 2.1 11:46:16 31° SSE 11:46:16 31° SSE 11:49:06 10° ESE visible
01 Oct 2.6 11:36:13 25° SE 11:36:13 25° SE 11:38:20 10° ESE visible
01 Oct 2.1 13:11:50 10° WSW 13:15:20 27° SSW 13:18:52 10° SE visible
02 Oct 3.1 11:26:12 19° SE 11:26:12 19° SE 11:27:34 10° ESE visible
02 Oct 2.2 13:01:32 12° WSW 13:04:33 24° SSW 13:07:54 10° SE visible
